Find Starlink 5179

NORAD ID: 54102 Int'l Des: 2022-136 Owner: SPXS Country: US Constellation: starlink operational
LEOCIRCULAR

Live Position

Loading 3D Globe...

About Starlink 5179

Description loading...

Upcoming Passes

Passes for default location (London). Set your location on the main map for personalized predictions.

Altitude History

Loading altitude history...

Two-Line Element Set

1 54102U 22136BD 26112.27535790 .00001112 00000-0 87957-4 0 9991
2 54102 53.2161 138.4739 0001220 87.7532 272.3600 15.08843779193560
Epoch: Apr 22, 2026 • Age: 11 hours

Current Status

Altitude 544.9 km
Velocity 7.60 km/s
Sub-Earth Point 50.82°N, 80.35°E
Launch Date Oct 20, 2022
Age 3.5 years
Type internet

Technical Details

Classification Payload
Mass 305.00 kg
Dry Mass 290.00 kg
Total Mass 305.00 kg
Length 0.20 m
Diameter 2.80 m
Span 9.00 m
Shape Box + pan
Manufacturer SPXS
Bus Type Starlink
Phase Status In Orbit
Owner/State SPXS/US

Most Searched